Location: Burland Observatory
(39.4088°N, 105.4217°W)
Time: 05:47:13
(UTC-07:00)

SR - Pass Details

Date: 16 December 2019
Orbit: 574 x 882 km, 66.7° (Epoch: 19 January)

Event Time Altitude Azimuth Distance (km) Brightness Sun altitude
Rises 18:25:42 0° 314° (NW) 3,439 ? -19.8°
Reaches altitude 10° 18:29:08 10° 294° (WNW) 2,458 ? -20.4°
Maximum altitude 18:32:32 16° 257° (WSW) 1,989 ? -21.1°
Drops below altitude 10° 18:35:48 10° 220° (SW) 2,343 ? -21.7°
Sets 18:38:59 0° 199° (SSW) 3,202 ? -22.3°
